Tracking 35237 objects as of 6-Sep-2026
HD Live streaming from Space Station
objects crossing your sky now

STARLINK-33679

Track STARLINK-33679 now!
10-day predictions
STARLINK-33679 is classified as:


NORAD ID: 63460
Int'l Code: 2025-070A
Launch date: April 6, 2025
Source: United States (US)
Launch site: AIR FORCE EASTERN TEST RANGE (AFETR)
Your satellite tracking list
Your tracking list is empty




NASA's NSSDC Master Catalog

Two Line Element Set (TLE):
1 63460U 25070A   26249.22461193  .00009703  00000-0  36155-3 0  9996
2 63460  42.9999 320.5540 0000731 285.4731  74.6040 15.27589561 80584
Source of the keplerian elements: AFSPC